Theta_e
303 295 293 293 295 296 297 298 298 298 298 298 297 296 294 295 296 295 296 297 297 297 297 298 299 299 300 301 303 302 302 302 302 302 303 304 304 304 305 306 307 307 307 315 314 315 318 321 323 324 325 326 327 327 327 327 329 330 330 330 330 331 331 331 330 331 331 331 331 332 332 331 333 332 333 333 333 333 333 333 332 332 332 332 329 328
298 294 294 296 297 298 298 299 298 297 297 297 296 296 295 297 295 297 296 297 298 296 297 299 298 299 300 302 303 304 302 301 301 302 303 303 304 305 306 306 307 308 312 317 313 313 314 315 320 322 323 322 323 325 326 326 327 328 329 329 329 329 329 329 330 330 329 329 328 329 330 331 331 330 329 330 332 332 332 332 332 331 332 331 330 328
293 291 296 298 299 299 298 298 297 296 295 296 295 295 294 295 297 294 296 297 298 295 296 298 296 297 299 301 303 303 303 303 304 304 304 304 305 305 306 307 307 309 310 313 312 312 311 313 313 316 318 321 322 323 324 325 326 327 328 328 328 328 328 328 329 329 329 330 330 329 329 331 331 333 331 332 331 332 330 331 332 331 331 331 330 329
290 293 297 299 299 297 296 297 297 296 296 295 294 293 292 296 293 291 294 297 295 295 297 297 295 298 300 302 302 304 303 304 305 305 305 305 304 305 306 307 308 308 311 311 311 310 310 312 312 312 313 316 319 321 322 323 324 326 327 327 327 327 328 328 328 328 330 330 331 331 330 330 331 331 333 333 333 332 331 330 330 330 330 329 328 328
292 294 293 297 297 297 295 296 295 294 293 297 297 295 294 295 295 296 294 295 295 296 295 296 295 295 298 298 300 303 305 304 305 306 306 307 309 309 313 316 314 309 310 312 311 311 310 310 311 310 310 311 313 316 320 322 323 324 325 327 327 327 326 327 327 327 329 329 328 328 330 330 329 327 329 331 330 331 329 328 326 326 327 329 328 328
294 291 294 293 295 296 295 294 295 296 292 294 298 297 296 297 295 294 295 293 293 293 297 295 288 290 297 298 298 301 301 301 304 303 304 305 306 306 306 307 310 312 312 312 312 311 311 310 310 310 310 310 311 313 316 321 323 324 325 326 327 327 326 326 326 326 326 326 325 324 324 322 322 322 323 323 325 326 326 325 327 327 327 327 328 328
293 289 292 293 294 296 295 294 297 297 293 292 294 299 298 296 296 296 294 294 289 288 295 296 288 287 297 297 299 301 301 301 302 302 303 304 305 306 306 307 307 308 309 310 310 311 310 311 309 308 309 310 310 311 315 317 321 323 324 325 326 326 326 326 326 325 324 323 323 323 322 322 321 320 322 324 326 326 326 326 326 327 327 327 325 324
291 291 292 295 294 296 295 292 296 297 294 291 296 300 298 297 297 296 296 295 293 295 294 293 295 288 289 296 301 300 298 299 300 301 303 303 304 305 306 307 308 308 309 311 310 309 309 310 310 309 309 309 310 311 312 313 316 320 322 324 325 325 325 326 325 324 323 322 322 322 321 321 321 321 322 324 324 326 326 325 325 327 327 327 326 325
294 291 294 292 295 294 293 295 300 299 295 295 296 300 298 297 298 298 296 294 296 293 289 292 298 288 288 294 299 299 296 298 299 300 302 303 304 305 306 306 308 308 308 308 309 308 308 307 308 308 309 309 309 310 311 312 315 317 320 322 324 324 324 324 324 323 322 321 322 322 321 320 321 322 323 325 325 324 325 325 325 325 326 327 325 325
294 294 294 295 294 292 296 292 296 299 294 296 298 299 299 300 300 298 295 295 293 289 285 291 295 287 288 295 297 298 297 297 299 301 302 303 305 306 306 306 306 306 307 307 306 308 309 309 308 307 307 307 308 311 313 313 314 315 317 319 321 322 322 323 322 321 321 321 321 321 320 320 320 321 323 324 324 324 324 323 324 324 324 324 324 323
294 294 293 295 293 295 292 293 295 295 298 299 299 298 296 296 296 295 296 294 289 285 287 294 295 292 285 294 296 296 297 298 299 301 303 304 305 305 306 307 308 306 308 310 310 309 309 310 309 308 307 307 307 310 311 312 314 315 317 318 319 320 321 321 320 320 319 320 320 320 320 320 321 321 322 321 322 323 323 322 322 322 323 324 324 324
294 293 296 294 293 294 297 294 296 296 299 300 297 294 295 292 293 291 290 292 285 283 289 288 292 292 284 290 297 300 299 299 300 300 301 301 303 304 305 304 304 305 306 308 308 308 309 308 307 308 308 308 309 310 311 314 314 314 316 317 317 318 320 320 319 319 318 319 320 321 321 321 321 322 322 321 321 321 321 321 321 323 323 323 323 323
293 293 295 295 295 294 297 294 293 295 295 297 295 293 287 286 286 283 287 282 283 283 287 288 290 288 288 293 297 298 300 300 299 299 300 302 303 304 304 305 304 305 305 306 308 309 310 309 309 308 309 309 309 308 311 313 314 315 316 316 316 316 319 319 319 318 318 319 319 320 321 321 322 323 323 322 322 322 321 321 321 322 323 322 321 321
291 295 294 296 296 295 298 291 288 288 292 293 291 290 286 283 282 280 283 286 286 286 287 288 292 285 292 295 299 298 301 301 301 301 303 303 302 303 304 306 303 307 306 307 309 310 311 311 312 310 311 309 309 310 313 313 314 315 316 316 316 317 319 318 318 318 318 318 319 320 321 322 322 322 323 323 322 322 322 322 321 321 321 321 320 320
284 284 290 293 290 298 295 297 294 293 292 292 299 293 289 287 284 280 283 281 283 285 285 289 286 285 286 291 299 300 301 299 300 299 301 302 302 302 303 303 304 304 305 308 308 310 310 312 313 312 312 311 311 312 313 314 315 315 316 316 316 317 317 317 316 317 317 318 319 320 321 321 322 322 322 322 323 322 322 322 322 322 321 320 320 319
288 289 292 294 294 294 295 297 295 298 293 296 297 298 291 289 294 285 286 286 286 284 283 283 285 292 293 300 301 301 301 300 299 300 299 300 301 302 302 304 304 305 306 308 309 310 311 311 311 312 312 313 312 313 313 313 314 315 315 316 317 317 316 315 315 315 317 318 319 319 320 321 322 322 322 322 322 322 322 322 321 320 320 320 320 319
289 287 292 295 293 292 294 293 294 296 286 292 293 288 291 296 293 285 284 285 283 285 284 289 288 292 297 297 299 300 299 298 298 298 298 299 301 303 303 305 305 306 308 310 310 310 311 310 310 311 311 312 312 313 313 313 314 315 315 316 316 317 316 315 314 315 316 318 318 319 320 320 320 320 319 319 320 320 320 321 320 319 319 319 318 318
288 288 291 293 291 292 293 291 294 295 294 292 285 292 296 298 297 289 284 285 283 281 284 289 286 288 290 287 299 299 298 299 299 298 298 300 301 301 303 306 308 308 309 310 310 311 312 310 309 310 311 311 312 313 313 313 314 315 316 316 316 317 315 315 314 314 315 316 317 318 319 319 319 319 318 318 318 318 318 318 318 318 317 316 316 315
297 286 289 288 291 293 293 295 294 294 294 293 292 300 291 285 285 288 286 280 281 280 282 286 287 288 290 291 295 295 295 297 298 299 298 298 300 301 302 306 308 309 308 306 306 308 308 309 310 310 309 310 311 312 313 314 314 315 315 316 316 316 315 315 314 314 315 316 317 318 318 317 317 317 317 318 317 317 317 316 316 315 315 315 314 313
298 288 286 292 292 293 294 293 286 289 296 296 295 293 295 290 288 286 286 287 286 282 281 283 285 284 294 293 296 296 297 298 298 298 298 299 300 301 303 306 307 306 306 308 308 309 310 310 310 310 309 308 308 310 311 312 312 312 314 314 315 316 315 315 314 314 314 315 315 316 316 316 316 316 316 316 316 315 315 315 315 314 314 314 314 313
290 293 285 288 293 292 286 290 289 291 287 288 290 288 291 291 291 290 292 287 285 283 283 283 282 287 295 298 297 297 298 299 298 298 301 302 302 303 305 307 308 308 308 309 309 308 309 309 308 308 309 309 309 309 310 310 310 311 312 312 313 313 313 313 313 313 313 314 314 314 314 314 314 314 314 314 314 314 314 314 314 314 314 314 313 312
289 288 285 286 286 286 290 292 291 292 296 291 291 289 290 288 286 284 282 289 285 285 283 283 282 289 297 296 298 298 299 297 298 297 299 300 300 301 304 306 309 309 307 307 308 309 309 308 308 308 308 307 307 307 307 309 310 310 311 312 312 312 313 312 313 313 313 313 313 313 313 313 313 313 313 312 312 312 312 312 312 312 312 311 311 311
296 295 290 285 288 289 292 292 292 292 290 292 291 291 296 292 291 287 282 284 285 285 286 286 283 286 298 297 297 297 297 296 296 295 296 297 298 299 301 304 305 309 306 307 307 307 309 309 309 308 307 306 306 308 307 307 308 310 310 311 311 311 312 312 312 312 312 312 312 312 312 312 311 311 311 310 310 310 310 310 310 310 310 309 309 310
294 289 287 287 289 290 291 292 291 291 292 292 293 293 292 290 291 290 289 290 286 286 284 285 282 287 298 298 294 295 296 296 295 294 296 296 298 298 300 302 303 303 306 307 307 307 308 308 308 306 306 307 307 307 307 308 308 309 309 309 310 310 311 311 312 311 311 310 310 311 310 310 310 309 309 308 309 309 309 309 309 309 308 308 308 308
288 289 290 285 284 285 287 290 290 292 292 290 290 292 293 296 296 291 289 289 286 287 287 285 281 287 300 293 296 294 296 296 296 297 295 296 299 301 300 302 303 305 306 305 305 306 306 306 304 306 308 309 309 308 308 308 308 307 308 308 308 309 310 310 310 310 309 309 308 308 308 308 308 307 307 307 308 307 308 308 307 307 307 307 306 306
292 290 289 283 280 278 277 279 282 284 287 291 293 295 294 293 292 289 286 287 284 288 287 285 286 292 295 293 294 296 296 296 297 297 296 297 298 299 302 302 303 305 305 305 307 306 305 305 307 309 309 309 308 308 307 308 308 307 308 308 308 308 308 308 308 308 308 307 307 307 306 306 306 306 306 306 306 306 307 306 306 306 306 305 305 305
290 292 290 289 286 285 287 290 296 295 291 287 289 290 292 293 294 292 290 287 284 288 286 288 290 291 293 293 293 296 295 296 296 296 297 298 298 299 302 304 305 305 307 306 307 309 310 307 305 307 308 309 307 307 307 306 306 306 306 306 305 306 307 306 306 306 306 306 306 306 305 305 305 305 305 305 305 305 305 304 304 303 303 303 303 302
291 289 291 292 291 292 293 294 295 295 290 291 289 289 291 290 290 288 287 286 290 287 284 291 292 289 291 295 295 296 297 297 298 298 298 299 302 301 302 304 300 302 303 304 304 304 305 308 309 308 308 307 307 308 308 308 307 306 305 303 302 303 304 305 304 304 305 305 304 305 305 304 304 304 304 304 304 303 302 302 301 301 302 301 300 300
290 287 292 291 291 293 294 295 296 295 294 293 292 291 289 291 289 286 287 291 291 287 285 291 293 290 292 295 297 297 298 299 299 299 299 301 301 302 302 302 302 302 303 304 304 305 306 307 310 309 309 308 307 306 308 308 305 305 304 303 302 302 302 303 303 303 303 304 304 304 305 304 303 303 302 301 301 300 300 300 300 299 299 299 299 300
292 289 293 292 290 292 293 295 296 294 292 292 293 293 294 292 290 290 290 292 291 291 293 293 293 294 296 297 298 299 301 302 298 298 298 299 300 301 300 301 301 302 303 303 304 304 304 305 307 307 308 307 305 307 307 305 305 306 306 304 301 302 302 302 302 302 302 302 303 304 303 302 301 300 300 300 299 299 299 298 298 298 297 297 298 298
294 289 293 289 288 287 291 291 291 292 292 288 291 293 294 293 292 292 292 292 293 293 294 294 293 292 297 300 300 302 299 298 298 296 297 298 300 300 300 300 300 300 302 303 303 303 304 307 305 306 304 304 306 307 304 303 304 304 303 303 301 301 300 301 301 302 302 303 303 301 300 300 300 299 299 299 299 298 297 297 297 297 296 296 296 296
293 288 291 289 286 286 289 288 287 287 287 287 288 292 292 291 289 291 289 293 291 290 292 292 290 291 297 300 300 300 297 297 297 298 298 299 299 299 299 299 300 301 301 302 303 303 303 302 303 303 302 302 303 304 302 302 302 301 301 301 301 299 298 300 301 301 301 301 300 300 300 299 299 298 298 297 297 296 296 296 295 295 296 296 295 295
291 289 287 288 285 285 288 288 286 285 285 283 284 289 293 293 293 293 294 294 294 294 290 287 289 296 297 299 298 298 297 296 297 298 300 301 301 300 300 300 300 300 301 302 302 302 301 301 302 303 303 302 301 301 303 302 300 299 301 300 298 297 298 298 299 300 299 299 299 298 298 298 297 296 296 296 295 294 294 293 292 294 294 294 295 295
292 291 289 290 285 286 285 285 286 283 277 279 292 295 295 292 292 290 291 293 295 295 293 296 296 298 299 298 297 297 297 296 297 300 302 301 302 301 301 301 301 302 302 303 303 302 301 303 304 304 303 302 301 300 298 297 299 299 297 296 297 297 298 299 299 298 297 297 296 296 296 295 293 294 295 293 292 293 292 292 292 293 294 292 293 294
290 289 289 290 287 286 284 285 281 277 279 291 295 298 297 296 296 294 295 295 295 296 296 296 297 297 299 300 300 300 300 299 299 300 300 301 303 303 302 301 301 301 302 302 302 301 301 303 303 301 299 298 297 296 295 295 296 295 296 297 297 297 298 297 297 296 295 295 294 294 294 294 293 293 292 291 290 290 290 291 290 291 290 290 292 292
289 289 289 288 289 287 282 283 276 278 289 294 295 293 296 297 296 294 292 295 297 296 297 295 297 298 299 299 300 301 300 298 298 299 300 303 307 305 304 303 303 302 301 303 303 302 301 300 300 298 298 295 295 295 296 295 295 296 296 297 296 296 296 295 294 293 293 293 293 292 292 292 292 292 292 290 289 289 289 290 289 289 290 290 291 291
295 292 290 287 289 282 283 283 283 289 287 289 291 291 293 291 291 290 287 291 296 298 297 296 297 298 298 299 300 297 296 296 296 297 299 300 304 303 303 303 305 306 307 304 303 301 299 298 297 296 294 294 294 294 294 294 295 295 294 294 294 293 293 292 291 291 291 290 290 290 290 290 290 289 288 288 287 287 288 288 288 289 289 289 289 290
294 289 291 287 285 288 284 282 282 282 279 285 293 296 298 298 298 298 292 289 297 298 299 297 296 297 298 299 297 295 295 293 292 295 299 299 300 301 300 300 296 297 296 295 295 295 295 294 294 293 293 292 291 292 294 295 295 294 292 292 291 291 290 289 288 288 289 288 289 289 289 288 288 287 286 286 286 286 287 287 287 288 288 288 288 288
293 292 291 288 286 286 284 281 280 278 282 290 294 297 299 299 300 297 290 286 295 297 299 298 297 298 297 297 293 294 292 289 291 296 300 299 298 298 297 293 292 292 294 295 294 293 292 293 293 292 292 291 290 292 293 293 292 292 290 290 289 288 287 287 287 287 287 287 288 288 287 287 286 286 285 285 285 286 285 286 287 287 287 287 287 287
287 288 288 286 284 286 284 282 280 284 284 289 291 294 295 299 300 292 281 283 294 297 298 298 297 297 298 299 294 293 292 290 291 297 294 294 293 288 291 291 290 289 289 291 291 292 291 292 291 289 289 289 289 291 291 290 290 288 288 287 286 285 285 285 285 286 287 287 287 286 286 286 285 285 285 284 285 285 285 286 287 286 286 286 287 288
285 286 287 283 285 286 285 284 285 286 292 292 291 292 297 299 294 284 279 288 297 297 296 298 298 298 299 295 294 292 295 297 297 293 291 292 291 288 288 288 288 289 288 289 289 288 288 287 287 286 286 287 287 288 289 289 288 286 285 285 283 283 283 284 285 285 286 286 285 285 285 285 285 284 284 285 284 285 285 286 286 285 285 285 286 287
284 285 286 286 284 284 285 283 283 287 293 293 293 297 298 293 284 283 292 298 296 296 296 298 298 298 298 296 295 296 297 294 289 293 291 290 289 288 288 287 288 288 288 288 287 287 286 285 285 284 284 285 285 286 287 287 285 283 283 281 280 281 282 283 283 284 285 284 284 284 284 284 284 284 284 284 285 284 284 285 285 285 285 286 286 285
285 283 281 282 285 285 285 283 282 278 288 294 294 291 296 288 290 297 296 297 297 297 295 295 297 298 297 295 296 297 295 291 292 290 290 289 289 288 288 288 288 287 287 286 286 286 285 283 283 282 282 282 283 283 284 283 282 280 279 278 278 279 280 281 282 283 283 283 283 283 283 283 283 283 284 284 284 284 284 285 285 285 285 285 285 285
291 284 284 285 288 281 281 279 281 289 293 297 293 289 292 295 295 293 297 299 295 295 296 297 296 297 297 298 296 296 295 292 290 289 287 287 286 286 286 286 286 285 285 285 285 285 284 282 282 281 281 281 280 280 280 279 278 277 276 275 277 277 278 279 280 281 281 281 281 281 281 282 282 283 283 283 283 283 284 284 284 284 285 285 285 285
292 288 290 286 290 286 285 288 292 293 294 295 296 294 295 296 294 293 294 294 296 297 291 294 296 296 297 297 297 297 293 292 290 289 287 286 285 284 283 283 283 283 283 283 283 283 283 281 280 280 279 279 278 277 276 276 275 275 274 274 275 274 275 276 277 279 278 278 279 279 279 279 281 281 281 281 282 281 282 283 283 282 284 284 284 284
295 295 292 292 289 293 294 295 300 296 295 293 291 290 291 291 291 291 293 294 295 291 290 291 291 291 293 294 295 292 292 290 288 286 285 284 283 282 282 282 282 282 281 282 282 282 281 280 279 279 278 278 278 276 275 274 273 272 272 273 273 273 273 274 275 276 276 276 277 277 277 277 279 278 279 280 281 281 281 281 281 281 282 283 283 284
292 292 290 289 292 289 285 293 293 293 292 291 292 290 290 289 290 289 290 292 290 288 288 289 289 290 291 291 293 292 289 288 285 284 283 283 282 281 280 279 279 279 279 279 280 281 280 279 278 277 277 276 277 276 274 273 272 271 271 271 272 272 272 273 274 274 274 274 275 276 276 275 276 276 277 278 278 279 280 281 281 281 281 282 283 283
288 295 290 289 288 288 288 293 293 289 290 289 290 290 290 291 288 288 287 287 286 286 286 286 288 289 291 290 291 289 287 286 284 283 282 281 280 280 279 278 278 278 278 279 279 279 278 277 276 276 275 275 275 275 274 272 270 270 270 270 270 270 271 272 272 273 273 273 274 274 274 274 275 275 275 276 277 277 277 278 279 279 279 280 280 280
291 291 287 289 289 291 294 292 290 291 290 287 288 289 293 292 289 285 285 285 286 286 285 285 285 287 288 288 288 287 285 284 283 282 280 280 279 278 278 277 277 277 277 276 277 277 277 275 274 274 274 273 274 274 273 271 269 269 268 268 268 268 268 270 271 272 272 273 273 272 273 273 273 274 274 274 275 276 276 276 276 277 278 280 281 281
290 288 291 289 287 288 288 291 292 288 290 292 287 288 287 287 287 286 285 284 285 285 285 284 283 283 284 285 286 285 282 281 281 280 279 278 278 277 276 276 276 275 275 276 276 276 275 274 273 273 272 272 273 272 271 270 268 268 268 267 267 267 266 267 269 271 271 271 271 272 272 272 273 273 273 274 274 274 275 277 278 278 278 278 281 281
291 292 291 289 288 288 294 296 291 295 296 290 290 287 287 286 285 285 285 284 283 284 285 284 283 282 282 282 283 282 281 280 279 278 277 277 276 276 276 275 274 274 274 275 275 274 273 273 272 271 271 271 271 271 270 268 267 266 266 266 266 266 266 266 267 269 269 270 270 271 271 271 272 273 273 274 274 274 274 274 277 279 280 280 280 280
Wind_Speed
1 8 9 11 9 11 13 13 8 3 4 6 11 12 11 9 5 5 6 4 1 2 11 11 13 13 12 12 11 11 10 9 8 9 8 8 8 9 9 10 10 10 10 6 8 8 10 11 11 11 10 10 11 11 11 12 12 12 11 11 12 11 11 10 11 12 12 12 11 10 10 11 11 9 8 8 7 7 7 7 8 8 7 10 9 8
1 8 10 11 12 12 13 13 5 3 4 7 8 9 9 5 6 3 4 3 1 4 7 11 11 14 13 12 10 7 10 11 12 11 11 12 11 9 10 11 11 10 6 6 7 8 9 9 10 10 9 11 12 12 13 13 14 13 13 13 12 10 11 12 11 10 10 10 10 10 10 10 9 9 8 9 8 7 7 8 7 7 8 11 11 8
5 10 10 10 6 7 5 4 1 4 5 2 6 6 7 6 4 3 5 3 4 2 6 3 7 12 14 13 12 13 13 12 12 13 13 12 12 11 11 11 11 10 10 9 10 9 9 10 10 10 9 10 12 12 14 13 13 13 13 12 11 11 11 11 11 10 10 9 9 9 10 10 9 8 9 8 8 7 6 6 7 6 6 7 7 8
8 9 7 6 6 6 4 5 6 6 5 5 5 6 7 2 5 4 4 5 4 4 2 5 6 10 13 12 13 13 14 13 12 13 14 12 13 13 11 11 10 11 10 11 11 11 11 11 10 10 9 10 10 11 11 13 14 12 12 12 12 11 11 11 11 10 10 10 9 8 7 9 9 8 7 7 6 8 10 10 8 7 7 6 6 7
7 1 5 3 6 9 8 7 9 8 9 8 7 6 6 4 3 3 3 2 3 3 1 7 8 11 11 12 10 13 15 14 11 10 9 9 8 7 4 3 6 10 11 10 10 10 11 11 11 11 11 9 10 10 11 12 12 10 14 14 14 12 12 11 11 11 9 9 10 8 2 1 5 3 4 7 6 7 8 7 7 6 6 7 7 8
5 1 1 1 6 9 10 9 11 9 9 8 9 8 4 3 5 6 7 5 4 4 7 5 4 10 9 13 14 8 5 8 9 10 12 12 10 9 11 12 9 6 6 7 9 10 11 10 10 10 10 10 10 10 10 10 12 11 11 13 13 11 11 11 11 11 9 8 9 10 8 8 9 9 11 11 11 10 7 7 6 6 7 7 6 6
1 2 2 6 6 7 10 10 11 11 9 9 6 12 5 1 4 6 6 3 3 5 3 2 9 6 3 7 11 10 7 9 8 11 12 11 10 11 12 11 10 10 9 8 7 6 7 8 9 10 10 11 10 10 9 9 10 11 10 12 12 11 10 10 11 12 10 10 10 12 13 12 13 11 9 10 9 9 7 7 9 9 10 10 8 6
4 4 3 0 6 7 7 8 8 12 8 8 3 2 6 6 6 6 6 6 3 4 3 3 5 7 8 7 4 5 5 8 10 11 11 10 11 12 11 11 10 10 9 7 10 10 10 9 9 10 10 9 9 8 8 9 9 11 11 11 12 10 10 9 10 12 11 12 12 12 12 10 12 11 9 9 9 9 8 9 9 8 8 9 9 7
6 6 5 6 4 5 9 4 5 9 9 1 2 2 6 6 6 7 6 4 2 3 4 6 5 2 8 8 4 4 5 7 9 10 12 12 12 12 10 9 8 8 7 7 6 8 9 9 9 8 7 7 8 8 9 9 9 9 10 10 11 11 10 10 11 11 11 10 11 12 12 11 10 10 8 7 8 8 8 9 8 8 7 6 7 9
2 2 5 6 8 8 3 5 6 5 12 2 3 4 6 4 2 5 4 5 2 4 8 7 10 5 10 7 7 4 6 10 10 9 11 10 11 10 8 7 6 5 4 5 6 5 5 5 5 5 5 5 5 6 6 7 8 9 10 11 12 12 10 10 12 10 11 12 9 12 12 13 11 9 9 8 8 8 8 9 8 6 7 7 8 9
3 1 2 1 4 3 4 6 4 7 5 8 8 7 5 3 2 2 2 4 3 7 10 4 8 5 6 6 8 6 6 8 9 9 3 6 5 4 3 5 4 4 4 4 5 5 4 3 4 5 6 6 6 5 7 7 8 8 9 11 13 13 10 10 11 11 12 13 13 12 12 13 11 10 9 9 9 9 8 9 9 9 8 8 8 8
5 4 3 2 1 3 3 6 6 1 1 4 3 4 5 2 3 3 4 3 6 8 2 2 4 2 8 5 5 4 4 1 2 3 1 2 4 5 4 4 3 3 3 3 4 5 5 5 5 5 6 7 8 7 8 8 8 9 9 10 12 12 11 10 11 12 12 13 13 12 12 12 11 11 9 10 10 10 10 10 9 9 8 9 8 9
4 3 3 3 2 1 5 6 4 4 1 3 6 7 7 4 3 5 5 7 8 7 3 2 3 2 13 11 4 5 5 2 3 3 3 2 4 4 4 4 3 1 2 3 4 4 4 5 6 7 7 7 7 8 9 9 9 9 9 11 13 12 12 11 11 12 13 12 12 12 11 11 10 10 10 10 9 9 10 9 10 9 9 8 7 7
3 4 4 3 4 4 5 8 4 3 5 6 10 8 8 8 6 7 7 4 5 2 3 3 2 5 7 7 17 18 15 3 1 3 3 2 1 1 2 2 1 2 3 4 4 4 4 5 5 6 7 7 7 8 9 9 9 8 8 11 12 12 12 10 11 12 13 13 12 12 11 10 9 10 10 9 9 10 8 7 9 9 7 6 7 7
7 4 8 11 4 8 5 3 3 2 10 11 3 7 6 5 3 6 6 8 5 1 3 4 1 4 3 1 3 4 3 1 1 1 1 0 2 2 2 3 4 4 4 4 4 4 5 5 5 5 6 6 6 8 8 8 8 8 8 10 11 12 12 11 11 10 12 12 12 11 11 9 8 9 9 9 8 8 9 9 10 8 6 6 6 6
12 4 4 6 2 2 9 1 2 2 4 1 1 2 2 6 2 6 1 1 2 2 2 2 5 4 6 6 5 5 5 4 3 4 4 4 3 2 3 4 4 3 3 4 4 4 5 4 5 4 5 5 6 7 7 8 7 7 8 9 10 11 11 11 11 10 11 11 10 11 11 10 9 7 7 7 7 7 8 9 8 7 6 6 5 5
5 8 2 3 1 1 2 1 2 2 5 5 3 5 3 5 3 3 1 2 1 2 6 5 4 9 7 13 13 7 6 5 4 5 5 6 5 4 4 4 4 4 3 3 3 4 5 4 4 4 5 5 5 6 6 7 7 8 8 8 10 10 10 10 10 10 10 9 9 10 10 9 9 8 8 7 8 8 7 7 6 6 5 5 5 4
9 4 2 2 4 1 2 2 2 3 0 4 3 3 2 2 3 1 6 2 3 6 4 5 8 8 6 5 4 7 6 7 6 6 5 5 5 6 5 5 5 4 4 3 2 2 3 4 4 4 4 4 5 6 6 7 7 6 6 8 9 9 10 10 10 10 9 9 9 8 9 9 8 8 8 8 7 7 7 6 5 5 5 5 4 4
3 3 2 3 2 1 1 2 3 1 1 1 1 5 4 3 4 2 2 5 4 6 7 6 8 8 7 7 2 3 8 9 7 4 4 5 6 7 7 7 5 4 3 3 4 4 4 4 4 4 4 4 4 5 5 6 6 6 6 7 7 8 8 9 8 8 7 8 6 6 7 8 8 7 7 7 7 6 6 6 6 6 6 5 6 6
1 3 2 1 2 3 1 2 7 4 2 3 1 0 2 2 4 4 4 2 3 7 4 5 6 5 6 9 9 6 2 4 5 5 5 6 6 6 6 6 6 5 4 4 4 4 4 5 5 5 5 5 5 5 5 6 5 7 6 6 6 6 7 8 8 8 7 7 6 6 6 7 7 8 7 7 7 6 6 6 6 6 6 7 6 6
3 3 2 2 2 2 4 4 5 9 8 3 3 3 2 1 1 3 2 5 3 4 6 6 5 3 4 8 10 11 11 2 3 1 2 2 2 3 3 4 4 5 5 4 4 3 4 4 4 4 4 4 4 4 4 5 6 6 6 6 7 7 8 8 8 7 7 7 7 7 8 7 7 8 7 7 7 6 6 5 5 5 5 4 5 4
3 2 4 5 4 5 3 4 3 4 1 5 8 9 11 8 5 4 4 2 0 3 5 5 7 4 1 1 4 5 3 4 3 1 2 2 3 2 1 1 4 5 5 5 4 3 3 3 3 4 4 3 3 4 5 4 5 6 7 6 7 7 7 8 8 7 7 6 6 8 8 7 6 7 6 7 6 6 5 5 5 5 4 5 5 5
1 3 6 5 3 4 3 2 3 2 2 0 1 2 2 4 4 4 7 3 0 3 4 1 4 3 3 2 2 1 2 1 1 1 3 2 3 2 2 2 1 1 5 5 4 3 2 2 3 3 4 5 5 4 5 5 5 6 6 6 6 7 7 7 6 6 6 6 6 7 7 6 6 6 7 7 6 7 6 6 5 5 5 5 5 5
3 3 5 4 4 2 2 2 3 1 1 1 3 2 1 8 10 7 4 1 4 4 3 4 6 4 1 1 1 2 2 2 2 3 4 3 3 3 3 3 4 3 2 2 2 3 3 2 2 2 3 4 4 4 5 5 5 5 5 6 6 7 6 6 6 6 6 6 6 6 6 6 6 6 6 7 6 7 6 5 5 5 5 5 4 4
4 3 6 6 3 2 1 1 1 0 1 3 5 7 7 2 1 2 1 1 3 6 8 6 10 6 3 1 2 2 3 3 4 4 5 4 4 3 3 3 3 3 4 4 4 4 3 2 2 3 3 4 4 4 4 5 5 5 5 5 6 5 6 6 5 6 6 6 6 6 6 6 5 5 6 6 4 6 6 5 5 5 5 5 5 5
2 3 8 7 9 10 10 11 11 9 11 6 2 2 7 9 7 4 6 3 8 4 7 5 8 10 1 2 3 4 3 3 3 3 3 4 4 2 2 3 5 4 5 6 6 5 5 5 4 3 4 4 3 4 4 4 4 4 4 5 4 5 5 5 5 5 5 5 6 6 6 5 5 5 5 5 5 5 5 5 5 5 4 5 5 4
4 2 5 7 9 9 9 4 2 7 5 5 3 7 7 9 10 7 2 5 9 2 5 7 11 14 10 4 6 5 4 5 4 5 5 4 4 4 3 3 4 4 4 5 5 4 2 3 5 6 6 5 5 4 4 4 4 4 4 4 4 3 4 4 4 5 5 5 5 5 5 5 5 4 5 5 5 4 4 4 4 4 5 4 4 4
2 5 9 10 13 12 11 9 10 13 11 12 14 13 14 13 10 9 11 12 7 8 9 6 12 14 16 14 5 6 3 4 4 4 4 2 2 3 4 3 2 2 2 2 2 4 5 5 4 5 6 5 6 6 5 5 5 5 5 5 4 4 3 3 4 4 4 5 4 4 5 5 4 4 4 4 4 4 4 4 4 4 3 2 3 3
5 7 10 11 12 12 12 7 8 11 13 12 17 16 17 16 14 13 13 17 12 8 11 13 15 16 16 13 8 7 7 7 7 5 1 1 2 4 4 5 6 6 5 5 5 4 4 5 4 4 3 3 3 3 5 6 6 5 4 4 5 4 5 4 5 5 5 5 5 5 4 4 3 3 4 4 4 4 3 3 3 2 2 2 2 3
3 6 9 13 13 13 11 2 3 9 8 9 10 11 6 11 14 15 13 17 19 13 11 17 18 18 15 12 10 11 6 2 4 4 2 1 4 6 7 6 5 5 5 5 7 7 5 4 2 2 1 0 1 1 0 1 4 5 5 6 5 4 4 4 4 5 5 4 4 3 4 4 3 3 3 3 3 2 2 2 2 2 2 2 2 3
3 4 11 5 8 9 7 3 1 2 5 9 10 10 9 10 11 13 13 14 15 13 15 16 17 16 12 9 8 1 4 4 3 2 4 6 6 6 7 7 8 9 7 8 9 8 4 2 2 2 3 3 2 1 1 2 3 3 4 4 4 4 4 4 4 4 4 4 4 4 3 3 3 3 3 3 2 2 2 2 2 2 2 2 3 3
3 1 2 4 7 8 7 6 4 2 1 2 4 4 7 11 11 9 12 12 14 14 15 17 16 12 14 13 11 6 6 7 6 6 6 5 5 6 8 10 10 10 12 13 9 5 3 4 4 5 5 4 3 2 2 2 2 2 2 3 3 4 4 3 3 4 4 4 4 4 3 3 3 3 3 3 2 2 1 1 1 2 2 2 2 3
7 4 5 7 9 9 9 9 8 4 1 5 8 10 13 12 13 13 14 16 17 16 15 13 14 15 17 15 12 12 11 11 11 11 7 4 7 10 11 12 15 15 13 11 9 8 7 8 7 6 5 3 3 2 1 0 0 1 1 3 3 3 3 4 3 4 5 4 5 5 4 3 3 3 3 3 2 2 2 1 1 1 2 2 2 1
9 7 6 7 8 9 5 4 4 3 10 10 7 15 15 15 15 15 13 15 15 15 11 13 15 16 18 19 17 17 9 11 11 10 11 12 11 10 11 13 14 14 12 9 6 7 7 6 4 3 3 3 2 2 4 3 2 3 4 4 3 3 4 4 4 4 5 5 6 5 4 4 3 4 4 3 2 1 1 0 0 0 0 0 0 1
6 4 6 4 6 5 6 7 4 12 12 14 15 10 17 18 15 15 15 18 18 19 20 20 20 21 18 12 11 11 10 10 11 12 13 12 9 7 10 12 14 15 15 10 8 8 8 6 3 3 3 2 2 2 3 2 3 3 3 3 4 3 4 4 5 5 6 7 6 6 5 5 4 5 4 2 1 1 1 1 1 1 1 1 1 2
8 9 5 6 6 2 3 7 7 11 10 11 5 1 3 9 11 12 19 21 20 21 20 19 18 16 15 17 16 13 4 1 2 4 7 5 3 4 6 9 13 16 17 11 8 8 7 5 4 3 2 4 4 3 2 3 3 4 5 4 5 5 5 5 6 6 7 7 7 6 5 5 4 4 4 4 2 2 2 2 1 1 1 1 1 1
9 8 7 7 7 6 5 8 10 4 3 3 7 9 11 14 15 16 12 14 13 11 12 13 16 16 21 21 18 4 4 2 4 7 4 5 4 4 8 9 4 2 1 2 3 4 5 5 5 5 5 4 4 4 3 3 3 5 6 6 5 6 6 6 7 7 7 7 6 6 5 5 5 4 3 3 3 3 3 3 2 1 1 1 2 2
2 6 7 8 4 7 6 5 5 6 13 11 17 17 12 7 6 8 9 15 10 11 14 16 18 17 21 13 7 8 5 2 10 13 7 10 10 10 11 2 4 4 5 5 6 7 7 7 7 7 6 6 6 5 4 3 4 6 7 7 6 6 6 6 7 7 7 6 6 5 5 5 4 3 3 3 3 3 2 2 2 2 1 2 2 3
3 3 3 6 4 6 8 9 8 10 15 16 7 6 10 9 9 9 3 10 15 15 16 18 17 21 20 10 8 4 2 4 11 12 10 11 13 13 9 5 5 6 5 5 5 7 7 7 7 8 7 7 7 5 3 4 6 7 8 7 6 5 6 7 7 7 6 6 5 5 5 5 4 4 3 3 2 2 3 3 2 2 2 2 3 3
5 4 3 4 6 7 7 9 10 4 11 6 5 5 11 13 12 7 7 10 24 19 13 13 18 19 14 3 7 5 8 9 12 13 5 3 3 9 5 6 6 7 7 7 8 8 9 8 9 10 9 8 7 5 6 6 7 9 9 8 6 7 8 8 7 6 5 5 6 6 6 4 4 4 3 3 3 2 2 2 2 2 3 3 3 3
5 4 8 11 10 10 9 7 7 7 9 4 10 8 12 14 14 10 11 18 4 7 12 14 12 11 6 7 9 8 12 15 7 4 4 5 7 8 8 8 8 7 8 7 8 8 9 9 10 10 9 7 8 7 6 5 8 9 8 7 8 9 8 7 6 6 6 6 6 6 4 4 4 4 3 2 3 2 2 2 2 3 3 3 3 2
4 5 2 4 9 12 10 10 10 8 5 7 2 15 13 10 8 15 11 2 6 2 4 9 11 12 10 11 10 11 7 3 8 4 7 6 7 7 8 9 10 10 10 10 9 9 9 10 11 11 11 10 9 9 6 6 10 9 8 9 10 9 7 7 7 6 6 6 6 4 4 4 4 3 2 3 2 3 2 2 2 2 3 3 3 5
10 8 8 9 6 2 2 7 6 11 6 15 12 3 10 12 5 1 2 1 3 4 6 5 7 5 6 8 11 12 3 5 5 6 7 8 8 8 8 9 9 10 9 10 10 9 8 10 10 11 10 9 9 7 6 8 11 9 8 11 9 8 8 7 7 7 6 5 5 5 5 4 5 4 3 4 4 4 4 2 2 3 3 3 4 5
13 6 5 6 9 7 10 10 9 3 6 17 16 10 10 8 3 0 3 1 3 1 0 1 3 4 7 9 9 8 5 8 6 7 8 8 9 9 10 10 11 11 11 11 10 9 10 11 10 10 10 9 9 10 9 10 10 9 10 10 8 7 7 7 7 5 5 5 5 5 5 6 4 4 3 4 4 4 4 4 4 3 3 3 3 4
12 10 12 9 10 7 8 11 12 4 8 2 3 3 3 5 5 4 3 2 2 3 3 1 2 3 3 3 3 3 5 4 7 7 8 8 9 9 9 10 10 10 10 10 10 10 9 10 11 10 11 10 12 11 11 10 10 10 11 8 8 8 8 7 7 6 6 6 6 6 6 6 4 5 5 5 4 4 4 5 5 4 4 4 4 4
7 10 5 6 9 9 11 9 2 2 3 4 4 2 3 3 5 4 3 1 2 2 3 2 4 6 6 4 1 1 4 8 9 9 9 10 10 10 10 10 10 10 10 10 10 10 10 9 10 10 12 12 12 11 10 10 10 12 8 7 8 8 7 7 7 7 7 7 7 7 8 8 6 7 7 6 5 4 4 5 5 4 5 4 4 4
3 1 6 6 4 10 11 16 16 10 5 2 3 4 2 2 2 3 1 0 1 3 2 2 2 3 4 4 3 5 7 8 10 9 10 9 10 9 10 10 10 9 9 10 9 8 7 8 9 11 11 12 10 9 9 10 10 9 7 8 8 8 7 7 7 7 7 8 7 6 7 8 7 8 6 6 6 5 5 4 4 4 5 4 5 6
3 3 3 6 6 14 12 13 7 2 4 4 3 2 1 3 2 1 1 0 2 2 2 2 2 0 1 0 3 7 8 8 10 10 9 9 9 9 9 9 9 10 10 10 10 9 10 10 11 10 10 10 8 8 9 9 9 9 8 8 8 8 7 7 7 6 7 7 6 6 6 6 9 9 6 6 6 5 5 5 4 4 5 5 6 6
3 10 5 6 5 5 6 2 3 2 3 5 6 4 3 3 4 3 3 3 3 4 4 5 5 4 3 5 7 10 10 8 9 10 11 9 9 9 8 9 9 9 9 10 9 10 9 9 10 10 10 9 8 8 8 9 9 9 9 8 8 9 8 7 7 6 6 5 5 5 5 5 6 6 7 7 7 5 5 6 5 6 5 5 4 4
3 5 2 3 4 7 8 4 8 2 5 3 5 6 4 2 3 3 3 3 3 4 5 7 7 7 7 6 7 8 11 11 10 10 11 9 9 10 9 9 9 10 10 9 9 10 11 11 10 9 9 8 7 7 8 8 8 8 8 8 8 8 8 7 6 6 5 5 5 5 5 5 6 6 6 7 7 8 6 6 9 8 7 6 7 10
7 5 5 4 7 6 3 4 4 1 2 4 4 6 4 3 3 4 4 4 3 4 4 7 9 8 9 8 7 10 11 12 11 11 11 9 9 8 8 9 8 8 9 8 10 10 10 9 9 9 9 7 6 7 7 7 7 7 8 8 8 8 8 7 6 4 4 5 5 6 6 6 6 5 6 7 8 8 9 9 6 8 10 10 10 10
Wind_Direction
133 194 195 205 211 205 208 216 231 36 293 185 196 210 222 222 205 76 78 71 296 231 222 224 238 248 251 242 227 177 179 198 212 215 218 223 224 221 222 224 223 223 226 213 206 188 184 187 190 191 190 191 192 196 195 197 199 197 194 189 195 191 194 199 199 199 200 201 204 205 218 224 214 207 199 201 204 203 212 209 206 211 210 221 211 198
292 214 212 211 220 218 204 212 223 259 338 246 219 218 220 207 221 82 105 127 169 230 225 221 241 251 250 248 245 198 176 209 213 219 225 227 226 223 218 220 221 225 210 162 167 173 176 186 186 187 191 191 191 198 196 198 198 198 196 196 195 189 193 200 203 201 204 206 204 199 208 216 221 214 205 207 205 207 201 203 205 210 214 220 218 201
205 213 214 201 101 73 73 181 156 250 249 294 242 225 245 219 89 131 101 118 147 195 246 98 255 256 253 249 240 234 229 231 222 223 228 229 230 228 223 220 222 213 208 193 204 189 190 189 188 188 192 196 200 197 199 199 198 197 198 199 194 193 191 196 200 199 202 204 204 202 207 206 217 235 227 216 208 182 193 202 204 205 201 208 209 201
206 220 200 96 129 130 150 194 207 221 248 242 223 235 225 170 190 207 151 155 188 226 322 21 302 276 268 256 246 237 233 235 229 225 229 226 233 231 225 219 217 217 207 212 201 196 193 185 187 187 190 194 196 200 197 196 199 198 199 196 193 193 194 194 197 202 201 200 205 209 211 204 207 218 215 220 226 210 200 207 205 208 202 200 202 199
198 94 5 188 149 196 193 192 204 215 227 221 244 238 236 154 195 317 124 153 114 251 353 300 290 275 255 250 236 229 223 227 220 214 222 227 231 235 241 245 221 217 211 213 199 192 192 186 188 190 191 191 196 198 196 192 194 196 198 196 193 191 192 195 193 197 200 194 200 205 164 302 185 70 205 203 207 204 197 193 191 199 190 197 201 203
187 307 85 146 188 190 205 199 207 212 229 220 210 230 287 180 170 103 122 154 207 227 190 211 275 260 250 239 233 212 131 205 209 213 222 219 212 206 223 228 217 221 229 215 202 196 191 188 187 187 187 194 197 198 197 194 194 193 193 192 190 191 190 192 190 188 193 200 196 197 194 201 211 213 210 212 208 210 202 206 194 188 195 209 209 205
168 54 215 158 175 201 210 218 202 207 228 232 208 198 201 271 127 147 163 193 230 248 112 271 226 268 226 214 220 207 189 208 192 206 226 218 210 200 213 213 210 212 210 212 220 214 200 193 185 187 191 197 199 200 190 192 195 194 191 190 189 189 188 187 183 180 185 201 206 207 206 205 207 211 214 218 219 222 213 216 221 217 211 210 209 204
125 105 106 255 174 183 206 220 203 200 223 227 32 294 162 172 168 173 190 205 279 90 93 234 246 262 269 254 118 126 206 228 222 219 225 218 212 209 207 202 201 205 202 190 203 212 218 211 199 200 195 194 199 190 186 193 193 193 189 187 185 186 185 179 178 177 183 197 202 200 202 203 209 212 210 205 215 218 221 222 221 222 209 197 199 202
148 144 160 130 179 184 209 247 159 189 226 253 28 298 178 204 197 180 200 219 298 354 249 175 189 250 253 244 146 181 240 235 232 229 227 218 210 210 203 198 190 192 192 192 194 206 209 210 209 209 199 193 191 190 190 189 187 188 187 186 183 184 183 175 173 175 183 197 200 202 203 206 214 215 216 210 208 214 212 222 219 224 227 200 209 224
345 135 171 155 162 196 113 25 343 192 214 134 145 75 75 59 112 200 222 230 193 223 247 206 179 234 261 246 217 171 237 249 247 235 230 221 206 194 193 182 173 169 178 203 219 215 211 200 190 188 182 175 179 179 181 181 183 187 187 187 185 186 184 173 172 173 183 195 200 202 205 205 204 209 214 216 211 206 209 217 220 208 222 224 222 223
81 105 209 75 189 65 102 41 40 10 39 129 150 110 98 109 160 185 235 225 222 237 239 185 179 242 272 228 225 194 215 218 234 240 188 91 99 133 142 159 171 184 185 188 203 218 217 195 185 172 188 189 172 173 180 180 181 180 183 184 184 186 180 173 171 174 185 193 201 204 202 202 202 200 205 209 214 213 198 214 216 214 213 213 217 215
100 93 164 75 32 162 90 96 41 353 145 168 157 158 144 119 150 178 196 205 230 242 133 17 195 209 228 234 240 238 57 53 235 255 99 168 157 166 163 167 163 178 191 193 203 211 197 182 186 183 189 180 170 169 178 175 176 180 183 182 183 184 181 175 170 174 189 193 199 205 202 202 205 199 199 208 213 212 215 215 211 208 211 218 222 222
108 139 96 84 243 214 166 109 61 45 278 266 180 179 196 195 169 209 184 204 215 240 95 85 97 231 241 247 300 279 303 251 237 245 290 224 168 143 147 143 146 173 202 212 209 203 187 193 182 184 182 167 169 178 176 173 172 176 181 182 181 183 181 175 172 176 187 191 197 200 201 202 203 207 206 209 214 213 215 216 218 216 219 217 219 226
142 113 164 125 160 236 220 171 129 175 204 211 202 188 195 209 195 217 204 218 232 82 246 91 201 275 302 267 235 255 261 306 169 200 184 193 196 166 134 135 163 207 219 214 203 201 198 192 182 181 172 174 172 175 172 169 171 172 176 179 181 179 178 173 173 179 187 193 196 197 199 203 202 207 212 213 215 219 223 216 218 218 208 209 214 213
173 200 208 166 191 155 209 269 169 201 173 200 229 208 213 227 211 213 202 207 214 227 105 245 176 235 189 223 3 262 289 72 229 123 57 338 281 282 308 287 270 253 228 200 204 204 200 190 176 172 171 170 168 170 168 166 171 168 174 178 180 176 176 172 175 180 188 191 195 196 201 203 203 205 209 216 217 217 218 219 221 214 205 209 210 213
204 211 55 12 17 128 180 129 79 96 155 178 327 11 252 229 231 238 343 323 196 131 161 166 228 285 235 1 236 210 239 240 198 215 188 234 219 211 257 249 246 235 204 180 196 201 197 175 165 165 166 166 166 167 166 169 170 172 176 178 182 177 172 171 176 185 189 190 191 196 200 202 205 205 207 212 215 218 221 221 216 208 208 212 217 215
166 202 76 135 127 141 57 27 102 277 195 180 176 209 198 3 79 102 107 116 22 305 263 159 240 252 275 271 272 230 194 214 188 200 198 211 212 190 234 241 228 207 192 172 195 201 181 158 163 169 167 165 164 167 174 173 173 175 172 174 178 173 169 173 179 184 190 190 190 195 198 197 199 204 204 208 211 211 211 212 210 209 211 211 214 218
177 126 33 174 157 60 51 32 66 43 325 92 181 203 54 299 357 213 242 145 226 246 253 167 222 248 217 281 204 206 197 230 198 185 186 198 195 211 224 223 207 188 185 165 172 156 148 160 166 164 164 169 170 171 171 172 170 176 174 176 175 172 169 173 174 184 190 192 192 191 196 198 198 202 208 210 210 210 208 204 204 203 206 205 199 197
168 134 101 356 25 90 170 194 115 109 58 5 158 343 213 187 224 184 257 230 213 227 243 212 220 248 240 228 179 183 229 232 222 171 167 197 202 212 215 213 178 152 143 188 196 177 172 170 169 161 165 158 160 164 168 168 162 169 171 176 178 175 171 170 171 180 185 191 189 190 193 194 196 205 208 209 206 206 209 205 202 203 206 204 199 198
200 205 105 34 98 120 84 202 193 166 187 132 14 322 42 6 249 189 200 295 246 249 240 248 172 247 187 230 247 248 105 228 220 164 208 218 214 203 200 186 165 166 178 191 191 181 173 166 161 160 159 165 170 166 165 165 162 173 170 169 174 173 170 170 173 177 182 185 181 185 188 193 198 202 204 204 202 207 208 210 205 206 209 211 206 210
169 357 165 107 297 150 172 206 209 171 159 172 194 193 193 236 358 337 263 222 224 244 241 264 245 236 213 198 211 223 246 19 77 133 206 261 228 185 184 156 156 165 178 184 177 177 169 156 147 144 149 141 142 154 161 175 178 174 172 175 180 175 173 177 181 182 185 180 188 185 191 190 192 198 200 201 205 206 209 208 207 209 214 208 216 201
146 206 170 138 142 211 159 33 37 25 200 190 184 194 188 179 191 193 235 77 148 226 248 246 255 265 69 350 211 231 45 65 49 14 313 314 283 250 255 157 153 161 174 172 165 154 149 151 141 134 132 133 153 169 178 174 173 172 176 178 175 183 183 184 185 188 186 185 185 190 193 191 188 196 196 199 200 204 205 201 200 200 200 208 212 207
274 82 109 159 172 164 59 88 45 105 107 94 4 232 225 228 221 215 225 189 349 241 25 313 336 250 65 41 342 11 34 11 40 17 286 300 307 300 245 227 213 122 155 158 149 150 152 153 146 151 157 167 180 177 176 173 184 178 175 171 174 181 184 183 183 179 182 183 186 191 192 192 192 188 195 194 200 201 202 198 202 198 201 205 212 216
63 140 100 79 65 64 150 117 164 150 145 272 237 224 258 205 205 223 249 100 198 137 227 239 246 252 94 73 288 289 320 310 279 236 256 276 286 287 255 216 191 176 124 112 119 145 151 141 116 133 159 168 174 180 184 186 182 175 173 173 172 185 183 178 175 173 177 181 185 187 188 193 194 191 193 197 201 200 198 194 193 194 202 207 212 219
164 185 150 140 137 131 97 147 110 252 158 214 218 203 207 237 161 54 79 287 265 187 209 215 246 254 179 64 275 277 244 248 251 221 202 245 257 254 240 200 166 158 153 168 172 170 151 138 156 182 173 174 172 175 179 182 184 179 179 175 178 182 183 175 175 174 179 183 181 185 188 192 192 197 204 206 208 203 195 193 189 192 201 202 211 219
161 146 169 173 174 175 186 190 193 189 198 188 220 169 181 207 192 177 235 208 250 176 200 231 255 261 33 229 203 210 202 242 228 214 184 221 262 291 208 191 170 180 182 178 167 158 174 187 182 174 173 173 174 177 183 183 177 181 178 179 173 177 171 174 169 175 175 179 184 185 186 191 192 201 203 204 210 206 196 191 189 190 195 204 212 217
131 198 202 204 211 214 211 213 88 94 82 189 173 195 204 205 213 218 338 233 225 171 219 212 244 264 248 209 191 201 201 214 210 208 213 216 211 233 247 187 176 183 185 174 167 164 139 162 189 186 173 169 164 177 180 181 180 183 175 169 164 175 167 172 168 174 176 177 183 184 185 192 192 195 198 199 204 200 196 190 185 186 198 200 206 210
140 191 183 197 229 232 225 197 166 169 184 193 196 208 207 201 197 197 207 226 209 232 245 212 234 247 252 247 186 196 203 235 231 219 209 211 197 185 207 183 161 221 225 210 210 202 199 193 181 180 173 162 162 164 174 171 172 167 165 164 162 164 168 161 173 176 179 177 182 193 190 192 189 183 189 189 186 186 186 185 181 185 187 181 198 200
172 196 183 192 222 244 251 255 189 190 201 199 206 206 207 201 192 195 216 227 226 218 239 237 229 238 253 249 232 210 191 213 218 215 160 99 139 163 181 200 209 216 219 214 219 211 205 213 201 184 169 155 147 171 156 156 157 152 148 141 153 167 177 169 173 173 177 175 187 193 183 163 149 159 162 168 177 177 180 173 171 161 166 178 199 211
195 214 174 188 212 223 245 220 168 198 209 224 223 222 188 185 199 203 215 222 225 227 230 245 248 245 244 255 245 249 227 181 103 93 83 207 208 191 198 212 219 228 227 225 223 215 215 228 265 281 48 217 205 229 76 137 133 130 132 137 142 154 144 156 171 166 168 170 179 158 138 135 138 161 164 163 164 161 158 166 157 157 167 194 205 206
224 200 165 173 209 223 214 71 63 256 213 220 222 222 194 172 186 201 218 235 236 244 245 250 255 261 264 269 263 175 108 84 99 121 195 215 207 197 201 216 229 234 233 229 227 218 204 231 277 308 273 254 242 259 351 7 15 43 88 114 130 136 142 165 151 153 152 154 131 113 126 146 143 143 150 144 136 138 146 152 145 156 181 191 201 207
200 350 83 134 211 227 200 196 172 151 355 286 245 182 170 174 191 196 216 218 221 224 237 248 255 261 265 251 249 212 180 172 190 203 219 201 185 186 199 212 224 229 228 225 217 187 185 220 229 240 249 256 271 280 289 330 348 32 2 59 86 103 123 129 128 134 125 103 106 112 116 113 114 123 117 114 121 123 123 113 138 173 189 204 214 218
183 165 167 165 208 227 205 202 176 133 124 256 233 208 196 197 196 201 211 214 213 211 227 230 236 243 249 256 249 233 208 198 204 212 218 211 211 198 200 209 217 225 227 222 203 191 195 209 216 215 208 194 188 190 197 73 73 7 43 71 70 94 104 100 105 107 101 96 91 88 81 80 86 83 76 70 65 75 75 116 163 205 215 231 235 230
188 179 186 167 206 220 169 124 110 133 224 228 212 203 193 198 201 210 215 219 220 213 224 230 238 241 242 246 241 247 210 201 208 210 208 220 222 212 213 218 222 227 231 221 187 184 203 213 200 177 168 145 119 76 67 63 60 58 53 66 73 78 82 96 87 88 86 81 73 69 65 63 63 58 57 51 41 44 51 74 292 278 284 291 265 240
185 185 206 176 208 218 102 130 151 221 230 221 220 200 198 208 196 204 218 219 216 214 219 228 231 237 244 252 257 256 242 214 204 211 219 224 226 215 219 218 221 228 234 218 180 190 202 202 166 160 148 113 87 75 84 91 80 88 81 72 73 71 84 75 82 74 72 70 62 56 50 50 49 51 57 55 48 37 25 11 355 355 306 273 258 253
172 184 193 204 198 112 136 172 217 231 232 234 216 24 214 221 221 214 232 228 215 214 215 229 240 248 253 255 253 251 267 346 343 259 242 240 234 227 230 232 229 228 233 225 186 195 195 178 172 163 108 69 77 76 76 94 100 96 85 76 75 77 73 76 72 65 61 61 54 51 45 44 49 52 52 40 30 26 10 12 352 336 323 307 293 282
183 172 190 206 188 214 178 195 219 22 358 159 211 210 176 197 199 204 228 242 232 234 221 232 243 244 246 246 252 64 76 38 299 264 222 227 247 241 238 243 262 325 349 68 114 121 76 78 85 75 76 65 56 69 68 83 93 95 89 78 68 66 64 62 59 55 55 55 46 43 41 40 40 39 32 28 24 16 6 357 340 329 324 299 279 272
33 197 186 205 202 208 211 218 213 235 248 225 214 215 186 191 192 200 221 260 247 225 222 226 236 240 245 248 82 90 72 347 277 273 191 184 213 235 238 173 74 65 59 78 68 72 75 74 78 76 81 78 65 58 77 102 115 104 92 84 73 68 65 60 57 49 50 49 42 38 42 39 35 37 27 26 19 3 353 339 315 306 320 302 292 279
57 54 2 218 209 184 218 226 209 222 238 235 236 174 155 159 119 98 178 257 250 222 214 215 226 240 245 242 102 110 74 268 265 263 268 174 205 220 216 88 71 60 64 65 82 94 91 88 89 91 83 79 74 69 82 102 105 96 85 75 69 65 61 53 46 42 40 42 41 41 39 41 31 28 21 17 1 351 327 312 321 327 319 298 285 276
142 193 185 220 226 214 203 219 230 211 256 246 158 150 142 125 117 111 222 247 248 233 221 222 228 237 249 159 136 178 201 258 258 257 41 19 54 40 57 92 85 79 73 68 71 84 93 92 85 69 66 65 62 53 55 63 71 71 73 69 62 55 47 38 34 30 36 40 40 40 28 32 33 17 18 5 346 334 329 318 330 340 327 311 293 292
175 185 197 207 215 222 215 239 254 255 245 120 144 133 141 133 138 189 211 235 279 125 188 217 232 242 229 166 177 213 215 227 245 62 88 95 76 55 52 61 72 78 85 79 73 69 70 64 67 69 62 50 34 31 35 65 76 70 63 62 57 45 33 23 22 27 32 36 38 35 27 20 20 5 360 351 337 337 323 330 337 324 319 304 294 299
169 165 192 212 220 219 214 225 238 275 248 117 271 147 142 134 190 209 222 77 94 74 161 186 204 217 213 195 201 223 237 84 113 103 75 70 81 91 79 87 88 78 74 70 67 73 81 77 74 69 58 45 37 33 32 63 78 69 62 57 45 29 12 13 17 19 30 31 28 21 16 15 357 347 347 335 332 341 321 311 288 290 296 295 297 288
169 164 181 191 190 213 206 218 222 250 243 123 115 150 179 193 211 232 110 227 66 169 175 202 203 205 184 212 212 223 155 103 98 103 97 93 96 95 95 89 92 93 89 81 70 60 76 83 74 67 62 49 44 40 36 61 71 64 57 51 28 9 7 9 13 17 25 24 21 13 9 359 350 349 344 346 336 324 306 302 306 290 265 259 280 287
155 181 169 207 184 172 195 202 214 251 104 146 141 183 205 223 91 350 335 195 68 50 91 276 226 210 197 206 218 214 172 129 100 104 96 85 87 88 83 80 78 78 75 68 71 76 80 82 79 75 64 57 50 45 39 50 64 57 55 42 13 4 7 11 9 16 25 24 19 10 6 352 345 353 343 345 334 328 316 319 318 301 302 309 300 303
165 207 176 198 178 193 194 216 218 105 159 348 26 32 25 36 55 65 46 29 346 66 39 319 341 357 320 302 314 158 121 101 116 115 108 110 92 85 80 74 71 74 74 73 65 65 71 81 83 80 69 60 54 49 45 43 57 57 50 24 11 4 6 2 4 17 21 15 12 8 5 348 345 358 348 342 332 333 333 327 333 318 319 324 310 300
179 198 163 214 210 206 242 235 251 183 170 129 85 51 4 359 19 36 43 357 67 26 14 343 356 339 327 325 251 62 99 121 116 104 98 95 94 89 89 82 74 71 73 72 69 68 78 80 78 75 75 64 58 55 49 45 45 49 33 13 11 4 0 3 11 18 20 13 10 6 1 354 356 356 344 339 338 329 321 316 319 322 320 315 301 290
206 144 169 207 116 170 229 229 227 216 128 171 118 125 134 68 21 25 308 210 20 36 9 42 317 295 305 300 235 133 112 116 109 108 105 105 96 93 87 84 75 70 70 71 69 76 75 76 72 69 68 67 57 58 54 52 48 44 27 20 8 3 1 14 20 22 19 12 3 3 6 357 359 343 339 342 340 329 326 325 323 319 313 315 319 323
229 168 203 190 175 200 228 221 227 53 84 128 156 162 218 190 153 94 78 84 92 94 92 22 345 26 296 161 117 116 108 106 114 117 111 102 102 97 94 90 91 84 73 76 78 77 77 71 72 69 68 66 57 58 57 51 44 33 25 18 9 0 2 21 23 25 17 12 9 4 2 357 349 341 332 331 334 331 333 336 332 325 322 330 331 327
125 135 205 170 201 233 286 352 126 170 186 196 190 211 195 162 168 159 156 133 152 131 104 77 50 54 71 84 95 111 107 103 103 110 108 106 99 95 90 91 85 85 85 77 69 71 73 75 73 70 68 65 57 58 59 52 40 30 25 18 11 5 8 8 7 12 18 17 13 6 2 351 349 343 338 331 328 323 324 324 320 318 302 297 301 315
136 195 114 121 216 226 222 227 113 223 254 163 190 194 178 130 153 144 144 145 141 122 118 98 69 53 59 65 100 104 109 107 101 102 99 98 101 103 102 96 91 86 83 80 83 82 81 73 73 72 70 65 61 61 61 51 38 26 21 15 10 11 11 1 354 6 11 13 8 2 353 346 346 345 339 336 329 330 323 331 320 299 298 302 307 307
198 180 136 203 204 236 253 82 180 230 13 87 120 139 134 142 149 157 170 148 104 98 128 124 118 97 79 64 62 100 109 114 113 107 100 98 94 92 94 97 95 91 91 88 86 84 83 79 72 74 70 65 57 63 61 56 37 24 15 13 6 8 8 358 3 0 1 3 6 358 351 346 341 332 332 335 336 332 331 329 338 328 315 303 304 307